Location: Killam
(52.7910°N, 111.8608°W)
Time: 20:15:50
(UTC+00:00)

A-11 Canister half - Pass Details

Date: 20 February 2026
Orbit: 1525 x 1683 km, 47.3° (Epoch: 5 March)

Event Time Altitude Azimuth Distance (km) Brightness Sun altitude
Rises 04:43:31 0° 282° (WNW) 4,681 12.4 -35.1°
Reaches altitude 10° 04:46:45 10° 276° (W) 3,695 11.6 -35.5°
Enters shadow 04:54:57 42° 214° (SW) 2,061 9.5 -36.5°
Maximum altitude 04:55:14 42° 209° (SSW) 2,059 - -36.6°
Drops below altitude 10° 05:03:50 10° 143° (SE) 3,730 - -37.6°
Sets 05:07:07 0° 137° (SE) 4,730 - -38.0°
